Regional Weather Roundup
Issued by NWS Charleston, SC

Home | Current Version | Previous Version | Text Only | Print | Product List | Glossary On
Versions: 1 2 3 4 5 6 7 8 9 10 11 12 13 14 15 16 17 18 19 20 21 22 23 24 25 26 27 28 29 30 31 32 33 34 35 36 37 38 39 40 41 42 43 44 45 46 47 48 49 50
000
ASUS42 KCHS 031727
RWRCHS

REGIONAL WEATHER ROUNDUP
NATIONAL WEATHER SERVICE CHARLESTON SC
100 PM EDT THU SEP 03 2015

NOTE: "FAIR" INDICATES FEW OR NO CLOUDS BELOW 12,000 FEET WITH NO
SIGNIFICANT WEATHER AND/OR OBSTRUCTIONS TO VISIBILITY.

NOT ALL STATIONS ARE QUALITY CONTROLLED BY THE NATIONAL
WEATHER SERVICE. USE DATA WITH CAUTION...ESPECIALLY
DEWPOINT OBSERVATIONS.

SCZ027-030-031-034>040-042>050-031800-
...SOUTHEAST SOUTH CAROLINA...

CITY           SKY/WX    TMP DP  RH WIND       PRES   REMARKS
N CHARLESTON   MOSUNNY   87  70  56 CALM      29.94F HX  92
WATERFRONT PRK   N/A     82  76  82 S7        29.93F
MOUNT PLEASANT LGT RAIN  88  77  70 S8        29.94F HX 100
JOHNS ISLAND   FAIR      86  77  74 SE6       29.95F HX  97
PINOPOLIS        N/A     88  75  66 CALM      29.87F HX  97
MONCKS CORNER  FAIR      88  72  58 CALM      29.94F HX  94
SUMMERVILLE    PTSUNNY   90  72  55 CALM      29.95S HX  96
BEAUFORT MCAS  PTSUNNY   88  74  63 SE3       29.95F HX  96
BEAUFORT ARPT  FAIR      86  77  74 CALM      29.95F HAZE    HX  97
HILTON HEAD IS MOSUNNY   88  77  70 N7        29.97F HX 100
WALTERBORO     MOSUNNY   91  72  52 CALM      29.95F HX  98
ALLENDALE      FAIR      90  73  58 CALM      29.94F HX  98

...SOUTHERN MIDLANDS AND PEE DEE...

CITY           SKY/WX    TMP DP  RH WIND       PRES   REMARKS
GEORGETOWN     NOT AVBL
KINGSTREE      NOT AVBL
ORANGEBURG     FAIR      90  68  48 W3        29.95F HX  94
BARNWELL       FAIR      91  73  55 N7        29.96F HX 100
AIKEN          FAIR      86  66  51 SW3       30.00F
MANNING        FAIR      86  68  54 N3        29.94F
COLUMBIA       PTSUNNY   89  70  53 SW7       29.95F HX  94
SUMTER         MOSUNNY   90  69  49 VRB2      29.93F HX  95
FLORENCE       MOSUNNY   88  73  61 NW5       29.94F HX  95
MYRTLE BEACH   MOSUNNY   90  73  58 W7        29.95F HX  98
N MYRTLE BEACH PTSUNNY   86  76  71 SW8       29.93F HX  96

$$

GAZ063-065-086>088-099>101-113>116-118-119-134>141-150-031800-
...SOUTHEAST GEORGIA...

CITY           SKY/WX    TMP DP  RH WIND       PRES   REMARKS
SAVANNAH ARPT  PTSUNNY   88  73  61 N6        29.96F HX  95
HUNTER AAF     PTSUNNY   87  79  77 N8        29.94F HX 101
FORT STEWART   PTSUNNY   85  75  70 NE2       29.94F HX  94
STATESBORO     PTSUNNY   87  78  73 CALM      29.96F HX 100
SYLVANIA       NOT AVBL
CLAXTON        NOT AVBL

...CSRA...CENTRAL AND FAR SOUTHEAST GEORGIA...

CITY           SKY/WX    TMP DP  RH WIND       PRES   REMARKS
THOMSON        CLOUDY    88  76  66 CALM      30.01F HX  98
AUGUSTA-BUSH   CLOUDY    89  73  59 NE6       29.95F HX  97
AUGUSTA-DANIEL CLOUDY    89  72  56 VRB3      29.98F HX  96
SWAINSBORO     FAIR      88  70  55 CALM      29.98F HX  92
VIDALIA        PTSUNNY   84  73  70 CALM      29.98F HX  91
EASTMAN        FAIR      87  75  66 CALM      30.00F HX  97
HAZLEHURST     FAIR      89  75  63 NE5       29.97S HX  98
ALMA           MOSUNNY   88  74  63 N7        29.97F HX  96
WAYCROSS       PTSUNNY   89  79  72 N5        29.97F HX 105
JESUP          FAIR      91  79  66 N6        29.96F HX 107
BAXLEY         FAIR      88  75  66 NE6       29.97F HX  97
BRUNSWICK      PTSUNNY   86  75  70 N7        29.97F HX  95
SAINT SIMONS   MOSUNNY   85  74  69 N9        29.96F HX  92

$$

SCZ027-028-034-036>038-045-046-048>050-GAZ119-141-031800-
...LAKE AND SUPPLEMENTAL COASTAL OBSERVATIONS...

STATION/POSITION TIME  TEMP    WIND        PRES    WAVE   SWELL
                       AIR SEA DIR/SP/G            HT/PER HT/PER/DIR
                 (UTC) (F)     (DEG/KT/KT) (MB)    (FT/S) (FT/S/D)
UPR LAKE MARION  NOT AVBL
WINYAH BAY       1600   84     270/  4     1014.0S
LAKE MURRAY      1600   84     150/  4/  5 1014.2F
ACE BASIN NERRS  NOT AVBL
FORT PULASKI     1700   83 83   40/  4/  7 1015.0
SAPELO ISLAND    1700   85     350/  8     1014.0F

$$

ANZ835-935-AMZ111-154-330-350-352-354-370-450-454-472-031800-
...C-MAN AND BUOY OBSERVATIONS...

STATION/POSITION TIME  TEMP    WIND        PRES    WAVE   SWELL
                       AIR SEA DIR/SP/G            HT/PER HT/PER/DIR
                 (UTC) (F)     (DEG/KT/KT) (MB)    (FT/S) (FT/S/D)
BUOY 41004       1650   80 84  220/  8/  8 1014.1F   2/ 7   2/ 7
BUOY 41008       1650   80 84   40/ 14/ 16 1014.1S   2/ 4   2/120/ 9
FOLLY BEACH CMAN 1700   82     180/  6/  7 1014.5F
CAPERS NEARSHORE 1608   80     210/ 12/ 14 1014.9F
FRIPP NEARSHORE  1600   82      30/  8/ 12 1014.4F


STATION/POSITION TIME  TEMP    WIND        PRES    WAVE   SWELL
                       AIR SEA DIR/SP/G            HT/PER HT/PER/DIR
                 (UTC) (F)     (DEG/KT/KT) (MB)    (FT/S) (FT/S/D)
5E ST. MARYS GA  1621      85                N/A     2/ 9
FRYING PAN BUOY  1650   82 82  220/ 12/ 12 1014.1F   1/ 7   2/120/ 7
BUOY 41025       1650   81 86  340/  4/  6 1013.9S   1/10   2/ 70/10
CAPE LOOKOUT NC  1700   80     120/  3/  4 1013.6F
BUOY 41002       1650   84 85  280/  6/  6 1014.1F   2/12   2/ 50/12
BUOY 41010       1620   84 86  230/ 12/ 14 1014.9F
ST AUGUSTINE FL  1700   87 82  280/  5/  8 1015.2F


$$


USA.gov is the U.S. government's official web portal to all federal, state and local government web resources and services.